{"data":{"norad_id":56477,"epoch":"2026-09-20T21:41:06.230976Z","epoch_age_seconds":77139,"freshness":"FRESH","line1":"1 56477U 23064AF  26263.90354434  .00118674  00000+0  88860-2 0  9993","line2":"2 56477  69.9981 352.1256 0003185 259.6720 100.4082 15.02031958184984","mean_motion":15.02031958,"eccentricity":0.0003185,"inclination_deg":69.9981,"raan_deg":352.1256,"arg_perigee_deg":259.672,"mean_anomaly_deg":100.4082,"bstar":0.008886,"rev_number":18498,"period_min":95.870130614092,"perigee_km":558.42141251185,"apogee_km":562.84140798918,"semimajor_km":6938.7684102505,"source":"CELESTRAK","updated_at":"2026-09-21T09:00:33.446906Z"}}